"Pseudo-MPEC" for P117Wkc

Created 2020 Oct 21 22:07:23 UT using Find_Orb

Click here for an explanation of pseudo-MPECs

 
 Astrometry: 
     P117Wkc  C2020 10 15YIGSe9H:/8pI4XyLby*Bb_XI$B3T_F#,yCE7.n-5=a#PaPl:44MGF51
     P117Wkc  C2020 10 15%+i8_N8=5l`ZHQi8X35=;?0USxWZE6f4)%=ABR3\f[3/QLg?LW\gF51
     P117Wkc  C2020 10 15vFBPESdDiP3rVPnR\'5H=HXHtygFV$3-J/7Ib!n,,'$b1Lnm.)oKF51
     P117Wkc  C2020 10 15R's';M7?:DiJ[m27aChAstrometryw_y#SF1];6iCdo$%v;D7:gaF51
     P117Wkc  C2020 10 17OZMfuFc=wHp29X\UfQYk(Ni?B1ZrEa8A-8^$/_Z%Ks]M/l:;%_CTF51
     P117Wkc  C2020 10 17Obv`vH_];Eq?)u(BV-mOEu97iT=NwKW9!qiJWL?7q6VU18wgFkqkF51
     P117Wkc  C2020 10 17@0(/dy7;Jredacted;o.L@wPwIo5u_EPp^M8^r/O8s1!719R5.`;F51
     P117Wkc  C2020 10 17N]E`no5SneJ,mj?K?XD+35pLg+4'!=FC$;lnn`Yrm4]F9W$7bkLXF51
     P117Wkc  C2020 10 189=RtI8eFq8etyxGl%[)Ku`)2Ht_lRclickDyMbH?'o6--U\`T),3F51
     P117Wkc  C2020 10 186^mvAE;?%bq#ax@/GX./@ErN3_FIC:y@x39$ud[\c!F[#here$CfF51
     P117Wkc  C2020 10 19Da1%3_8r+;oE:3?mGXqBw,Y`.%ue)Q(b-9!yf`n[`bIYUJlFi3%OF51
     P117Wkc  C2020 10 19u*$`hBkJHS1.0(nXfor=.@@hvjZ7I5R0!VJCxexplanation;m!HF51
     P117Wkc  C2020 10 20XqVhS%Fp3@7![[sr^bi6MDFQAymh;FKL4$Q4NdT?@K!UDM:`p*3:F52
     P117Wkc  C2020 10 20+?[*2#^'I/-7g^K;#Z5w+jR)=FC4+1(6P@bA$CkgQ(Ti.IFh^CMNF52
     P117Wkc  C2020 10 20PVFvy4'0=:Z7;m(QO6t]`A%xRMn.MEbaL#Dg^5C:Qwa3(6$#NdDSF52
     P117Wkc  C2020 10 20b,i1n00#67[4$sJ!3UStB[dF^8d\l'yxpdFgtWD0n%ELxo'eJZ_lF51
     P117Wkc  C2020 10 20JmbW].^6,/SPt0t*XT)*,x1rlWI.[pbxME,f59O5F%c0SHh-QL:*F51

Station data:
(F51) Pan-STARRS 1, Haleakala  (N20.707235 W156.255910)  US/Hawaii.
   Observers N. Primak, A. Schultz, S. Watters, J. Thiel, T. Goggia. Measurer
   PS1 Science Consortium. 1.8-m Ritchey-Chrétien + CCD.
(F52) Pan-STARRS 2, Haleakala  (N20.707384 W156.255910)  US/Hawaii. 1.8-m
   Ritchey-Chrétien + CCD.

Orbital elements:  P117Wkc
   Perihelion 2020 Nov 14.000842 +/- 0.0902 TT =  0:01:12 (JD 2459167.500842)
Epoch 2020 Oct 20.0 TT = JDT 2459142.5   Earth MOID: 0.3977   Ma: 0.0119
M 354.32325943 +/- 0.09             (J2000 ecliptic)          AutoNEOCP
n   0.22706197 +/- 0.00346          Peri.   21.69214 +/- 0.08
a   2.66096878 +/- 0.027            Node    20.37195 +/- 0.008
e   0.4811657 +/- 0.00418           Incl.   15.15623 +/- 0.10
P   4.34                   H 23.2   G  0.15   U  8.9  
q 1.38060165 +/- 0.00296    Q 3.94133591 +/- 0.0519
From 17 observations 2020 Oct. 15-20; mean residual 0".26
Residuals in arcseconds: 
201015 F51  .06+  .10+    201017 F51  .08-  .09-    201020 F52  .33-  .65-    
201015 F51  .19-  .28+    201017 F51  .09-  .05-    201020 F52  .28+  .38-    
201015 F51  .14-  .03-    201018 F51  .02-  .02-    201020 F52  .33+  .31-    
201015 F51  .19+  .35-    201018 F51  .06+  .14+    201020 F51  .01-  .47+    
201017 F51  .19+  .01+    201019 F51  .14-  .40+    201020 F51  .18-  .56+    
201017 F51  .21+  .15-    201019 F51  .15-  .23+    

Ephemerides (geocentric):
Date (UTC) HH   RA              Dec         delta   r     elong  mag " sig PA
---- -- -- --  -------------   -----------  ------ ------ -----  --- ---- ---
2020 10 21 22  00 52 26.244   +10 13 07.25  .41292 1.4003 166.7 22.7 .383  50
2020 10 21 23  00 52 23.326   +10 14 31.92  .41292 1.4002 166.6 22.7 .394  51
2020 10 22 00  00 52 20.410   +10 15 56.60  .41292 1.4001 166.6 22.7 .405  51
2020 10 22 01  00 52 17.496   +10 17 21.28  .41292 1.4001 166.5 22.7 .416  51
2020 10 22 02  00 52 14.585   +10 18 45.96  .41292 1.4000 166.5 22.7 .427  52
2020 10 22 03  00 52 11.676   +10 20 10.64  .41292 1.3999 166.4 22.7 .439  52
2020 10 22 04  00 52 08.769   +10 21 35.32  .41293 1.3999 166.4 22.7 .450  52
2020 10 22 05  00 52 05.865   +10 23 00.01  .41293 1.3998 166.3 22.7 .462  52
2020 10 22 06  00 52 02.963   +10 24 24.69  .41293 1.3997 166.3 22.7 .474  53
2020 10 22 07  00 52 00.063   +10 25 49.38  .41293 1.3996 166.2 22.7 .486  53
2020 10 22 08  00 51 57.166   +10 27 14.06  .41294 1.3996 166.2 22.7 .498  53
2020 10 22 09  00 51 54.271   +10 28 38.75  .41294 1.3995 166.1 22.7 .511  53
2020 10 22 10  00 51 51.378   +10 30 03.44  .41294 1.3994 166.1 22.7 .523  54
2020 10 22 11  00 51 48.488   +10 31 28.13  .41295 1.3994 166.0 22.7 .536  54
2020 10 22 12  00 51 45.601   +10 32 52.81  .41295 1.3993 166.0 22.7 .549  54
2020 10 22 13  00 51 42.715   +10 34 17.50  .41296 1.3992 165.9 22.7 .562  54
2020 10 22 14  00 51 39.832   +10 35 42.19  .41296 1.3992 165.9 22.7 .575  54
2020 10 22 15  00 51 36.952   +10 37 06.88  .41297 1.3991 165.8 22.7 .588  55
2020 10 22 16  00 51 34.074   +10 38 31.56  .41297 1.3990 165.8 22.7 .602  55
2020 10 22 17  00 51 31.199   +10 39 56.25  .41298 1.3990 165.7 22.7 .615  55
2020 10 22 18  00 51 28.326   +10 41 20.94  .41298 1.3989 165.7 22.7 .629  55
2020 10 22 19  00 51 25.455   +10 42 45.62  .41299 1.3988 165.6 22.7 .643  56
2020 10 22 20  00 51 22.588   +10 44 10.30  .41300 1.3988 165.6 22.7 .657  56
2020 10 22 21  00 51 19.722   +10 45 34.98  .41301 1.3987 165.5 22.7 .671  56
2020 10 22 22  00 51 16.860   +10 46 59.67  .41301 1.3986 165.5 22.7 .686  56
2020 10 22 23  00 51 13.999   +10 48 24.34  .41302 1.3986 165.4 22.7 .700  56
2020 10 23 00  00 51 11.142   +10 49 49.02  .41303 1.3985 165.4 22.7 .715  57
2020 10 23 01  00 51 08.287   +10 51 13.70  .41304 1.3984 165.3 22.7 .730  57
2020 10 23 02  00 51 05.434   +10 52 38.37  .41305 1.3984 165.3 22.7 .745  57
2020 10 23 03  00 51 02.584   +10 54 03.04  .41306 1.3983 165.2 22.7 .760  57
2020 10 23 04  00 50 59.737   +10 55 27.71  .41307 1.3982 165.2 22.7 .775  57
2020 10 23 05  00 50 56.893   +10 56 52.37  .41308 1.3982 165.1 22.7 .790  57
2020 10 23 06  00 50 54.051   +10 58 17.04  .41309 1.3981 165.1 22.7 .806  58
2020 10 23 07  00 50 51.212   +10 59 41.70  .41310 1.3980 165.0 22.7 .822  58
2020 10 23 08  00 50 48.375   +11 01 06.36  .41311 1.3980 165.0 22.7 .838  58
2020 10 23 09  00 50 45.541   +11 02 31.01  .41312 1.3979 164.9 22.7 .854  58
2020 10 23 10  00 50 42.710   +11 03 55.66  .41313 1.3978 164.9 22.7 .870  58
2020 10 23 11  00 50 39.882   +11 05 20.31  .41314 1.3978 164.8 22.7 .886  58
2020 10 23 12  00 50 37.056   +11 06 44.96  .41316 1.3977 164.8 22.7 .903  59
2020 10 23 13  00 50 34.233   +11 08 09.60  .41317 1.3976 164.7 22.7 .920  59
2020 10 23 14  00 50 31.413   +11 09 34.23  .41318 1.3976 164.7 22.7 .937  59
2020 10 23 15  00 50 28.596   +11 10 58.87  .41319 1.3975 164.6 22.7 .954  59
2020 10 23 16  00 50 25.781   +11 12 23.49  .41321 1.3974 164.6 22.7 .971  59
2020 10 23 17  00 50 22.969   +11 13 48.12  .41322 1.3974 164.5 22.7 .988  59
2020 10 23 18  00 50 20.160   +11 15 12.74  .41324 1.3973 164.5 22.7 1.01  60
2020 10 23 19  00 50 17.354   +11 16 37.35  .41325 1.3972 164.4 22.7 1.02  60
2020 10 23 20  00 50 14.551   +11 18 01.96  .41327 1.3972 164.4 22.7 1.04  60
2020 10 23 21  00 50 11.750   +11 19 26.57  .41328 1.3971 164.4 22.7 1.06  60